INTELSAT 35E (IS-35E)

Last updated on Thu Nov 21 2024 00:02:43 GMT+0000 (Coordinated Universal Time)

1 42818U 17041A 24324.78808341 -.00000236 00000+0 00000+0 0 9990 2 42818 0.0142 298.3820 0002561 318.9245 51.2200 1.00270181 27054
UTC large
Height (km)
Speed (km/s)
/
Latitude / Longitude
Inclination (degrees)
Orbital Period (minutes)
Azimuth
Elevation
Range (km)
Doppler Factor

Next 0 passes for location: London (51.5072 / 0.1276)

Sorry there are no passes over London.